• In Czech Republic
  • List of Countries
  • For 7 days
  • Water Temperature
  • Satellite Maps
  • Weather Map
  • Weather Widgets
  • user-avatar
    Login

    Hourly Weather Budapest

    Today, 27 May, Sunday

    Time Temperature Precipitation Wind Pressure Humidity
    00:00 +20°C° 0 mm 1 mps 757 mmHg 72%
    01:00 +20°C° 0 mm 1 mps 757 mmHg 74%
    02:00 +19°C° 0 mm 1 mps 757 mmHg 75%
    03:00 +19°C° 0 mm 1 mps 756 mmHg 76%
    04:00 +19°C° 0 mm 1 mps 756 mmHg 77%
    05:00 +20°C° 0 mm 1 mps 756 mmHg 74%
    06:00 +22°C° 0 mm 1 mps 757 mmHg 70%
    07:00 +23°C° 0 mm 1 mps 757 mmHg 66%
    08:00 +25°C° 0 mm 1 mps 757 mmHg 62%
    09:00 +26°C° 0 mm 1 mps 757 mmHg 57%
    10:00 +28°C° 0 mm 1 mps 757 mmHg 53%
    11:00 +29°C° 0 mm 1 mps 757 mmHg 50%
    12:00 +29°C° 0 mm 1 mps 756 mmHg 47%
    13:00 +28°C° 0 mm 0 mps 756 mmHg 44%
    14:00 +28°C° 0 mm 0 mps 756 mmHg 44%
    15:00 +28°C° 0 mm 0 mps 755 mmHg 44%
    16:00 +28°C° 0 mm 0 mps 755 mmHg 44%
    17:00 +28°C° 0 mm 1 mps 755 mmHg 49%
    18:00 +27°C° 0 mm 1 mps 755 mmHg 54%
    19:00 +26°C° 0 mm 1 mps 755 mmHg 59%
    20:00 +25°C° 0 mm 1 mps 755 mmHg 61%
    21:00 +24°C° 0 mm 1 mps 755 mmHg 64%
    22:00 +23°C° 0 mm 1 mps 756 mmHg 67%
    23:00 +22°C° 0 mm 1 mps 756 mmHg 69%

    Tomorrow, 28 May, Monday

    Time Temperature Precipitation Wind Pressure Humidity
    00:00 +22°C° 0 mm 1 mps 756 mmHg 72%
    01:00 +21°C° 0 mm 1 mps 756 mmHg 74%
    02:00 +21°C° 0 mm 1 mps 756 mmHg 76%
    03:00 +21°C° 0 mm 1 mps 756 mmHg 78%
    04:00 +20°C° 0 mm 1 mps 756 mmHg 80%
    05:00 +22°C° 0 mm 1 mps 756 mmHg 77%
    06:00 +23°C° 0 mm 2 mps 756 mmHg 74%
    07:00 +24°C° 0 mm 2 mps 756 mmHg 71%
    08:00 +26°C° 0.1 mm 2 mps 756 mmHg 67%
    09:00 +27°C° 0.1 mm 2 mps 756 mmHg 62%
    10:00 +28°C° 0.1 mm 2 mps 756 mmHg 58%
    11:00 +29°C° 0.1 mm 2 mps 756 mmHg 55%
    12:00 +30°C° 0.1 mm 2 mps 756 mmHg 51%
    13:00 +30°C° 0.1 mm 2 mps 756 mmHg 48%
    14:00 +30°C° 0 mm 2 mps 755 mmHg 49%
    15:00 +30°C° 0 mm 2 mps 755 mmHg 51%
    16:00 +30°C° 0 mm 2 mps 755 mmHg 52%
    17:00 +28°C° 0.3 mm 2 mps 755 mmHg 58%
    18:00 +27°C° 0.3 mm 2 mps 755 mmHg 64%
    19:00 +26°C° 0.3 mm 2 mps 755 mmHg 70%
    20:00 +25°C° 0.4 mm 2 mps 755 mmHg 74%
    21:00 +24°C° 0.4 mm 2 mps 755 mmHg 78%
    22:00 +23°C° 0.4 mm 2 mps 755 mmHg 81%
    23:00 +21°C° 0 mm 2 mps 755 mmHg 83%

    Day after tomorrow, 29 May, Tuesday

    Time Temperature Precipitation Wind Pressure Humidity
    00:00 +21°C° 0 mm 2 mps 755 mmHg 85%
    01:00 +20°C° 0 mm 2 mps 755 mmHg 86%
    02:00 +20°C° 0 mm 2 mps 755 mmHg 87%
    03:00 +19°C° 0 mm 2 mps 755 mmHg 89%
    04:00 +19°C° 0 mm 2 mps 755 mmHg 90%
    05:00 +20°C° 0 mm 2 mps 755 mmHg 86%
    06:00 +21°C° 0 mm 3 mps 755 mmHg 81%
    07:00 +22°C° 0 mm 3 mps 756 mmHg 77%
    08:00 +23°C° 0 mm 4 mps 756 mmHg 70%
    09:00 +25°C° 0 mm 4 mps 756 mmHg 63%
    10:00 +27°C° 0 mm 5 mps 755 mmHg 56%
    11:00 +27°C° 0 mm 5 mps 755 mmHg 54%
    12:00 +28°C° 0 mm 5 mps 755 mmHg 51%
    13:00 +29°C° 0 mm 5 mps 755 mmHg 48%
    14:00 +29°C° 0 mm 5 mps 754 mmHg 50%
    15:00 +29°C° 0 mm 4 mps 754 mmHg 52%
    16:00 +28°C° 0 mm 4 mps 754 mmHg 53%
    17:00 +27°C° 0 mm 4 mps 753 mmHg 60%
    18:00 +26°C° 0 mm 3 mps 753 mmHg 66%
    19:00 +24°C° 0 mm 3 mps 753 mmHg 72%
    20:00 +22°C° 0 mm 3 mps 753 mmHg 73%
    21:00 +21°C° 0 mm 3 mps 753 mmHg 74%
    22:00 +21°C° 0 mm 3 mps 753 mmHg 75%
    23:00 +20°C° 0 mm 2 mps 753 mmHg 75%

    30 May, Wednesday

    Time Temperature Precipitation Wind Pressure Humidity
    00:00 +19°C° 0 mm 2 mps 753 mmHg 76%
    01:00 +19°C° 0 mm 2 mps 753 mmHg 76%
    02:00 +18°C° 0 mm 2 mps 753 mmHg 76%
    03:00 +18°C° 0 mm 2 mps 753 mmHg 77%
    04:00 +17°C° 0 mm 2 mps 753 mmHg 77%
    05:00 +19°C° 0 mm 3 mps 753 mmHg 73%
    06:00 +20°C° 0 mm 3 mps 753 mmHg 69%
    07:00 +21°C° 0 mm 4 mps 753 mmHg 65%
    08:00 +23°C° 0 mm 4 mps 753 mmHg 61%
    09:00 +25°C° 0 mm 5 mps 753 mmHg 56%
    10:00 +26°C° 0 mm 5 mps 753 mmHg 52%
    11:00 +27°C° 0 mm 5 mps 752 mmHg 50%
    12:00 +28°C° 0 mm 5 mps 752 mmHg 48%
    13:00 +29°C° 0 mm 5 mps 752 mmHg 46%
    14:00 +29°C° 0 mm 4 mps 751 mmHg 47%
    15:00 +29°C° 0 mm 4 mps 751 mmHg 47%
    16:00 +29°C° 0 mm 4 mps 750 mmHg 48%
    17:00 +27°C° 0 mm 3 mps 750 mmHg 53%
    18:00 +26°C° 0 mm 3 mps 750 mmHg 58%
    19:00 +25°C° 0 mm 2 mps 750 mmHg 63%
    20:00 +24°C° 0 mm 2 mps 750 mmHg 64%
    21:00 +23°C° 0 mm 2 mps 750 mmHg 65%
    22:00 +21°C° 0 mm 2 mps 750 mmHg 66%
    23:00 +20°C° 0 mm 2 mps 750 mmHg 68%

    31 May, Thursday

    Time Temperature Precipitation Wind Pressure Humidity
    00:00 +20°C° 0 mm 2 mps 750 mmHg 69%
    01:00 +20°C° 0 mm 2 mps 750 mmHg 70%
    02:00 +19°C° 0.3 mm 2 mps 749 mmHg 72%
    03:00 +19°C° 0.3 mm 2 mps 749 mmHg 74%
    04:00 +19°C° 0.3 mm 2 mps 749 mmHg 76%
    05:00 +19°C° 0.4 mm 2 mps 749 mmHg 75%
    06:00 +20°C° 0.4 mm 2 mps 749 mmHg 74%
    07:00 +21°C° 0.4 mm 2 mps 749 mmHg 74%
    08:00 +23°C° 0.1 mm 2 mps 749 mmHg 71%
    09:00 +23°C° 0.1 mm 2 mps 750 mmHg 68%
    10:00 +24°C° 0.1 mm 3 mps 750 mmHg 65%
    11:00 +26°C° 0 mm 2 mps 749 mmHg 61%
    12:00 +27°C° 0 mm 2 mps 749 mmHg 56%
    13:00 +28°C° 0 mm 2 mps 749 mmHg 52%
    14:00 +28°C° 0 mm 2 mps 749 mmHg 52%
    15:00 +29°C° 0 mm 2 mps 749 mmHg 51%
    16:00 +29°C° 0 mm 1 mps 748 mmHg 51%
    17:00 +27°C° 0.5 mm 2 mps 748 mmHg 57%
    18:00 +26°C° 0.5 mm 2 mps 748 mmHg 63%
    19:00 +25°C° 0.5 mm 2 mps 748 mmHg 69%
    20:00 +24°C° 0 mm 1 mps 749 mmHg 72%
    21:00 +23°C° 0 mm 1 mps 749 mmHg 74%
    22:00 +22°C° 0 mm 1 mps 749 mmHg 77%
    23:00 +21°C° 0 mm 1 mps 749 mmHg 78%

    1 June, Friday

    Time Temperature Precipitation Wind Pressure Humidity
    00:00 +21°C° 0 mm 1 mps 749 mmHg 80%
    01:00 +20°C° 0 mm 1 mps 749 mmHg 81%
    02:00 +20°C° 0 mm 1 mps 750 mmHg 82%
    03:00 +20°C° 0 mm 1 mps 750 mmHg 83%
    04:00 +19°C° 0 mm 1 mps 750 mmHg 84%
    05:00 +21°C° 0 mm 1 mps 750 mmHg 79%
    06:00 +21°C° 0 mm 2 mps 750 mmHg 74%
    07:00 +24°C° 0 mm 2 mps 751 mmHg 70%
    08:00 +25°C° 0 mm 2 mps 751 mmHg 65%
    09:00 +27°C° 0 mm 3 mps 751 mmHg 60%
    10:00 +28°C° 0 mm 3 mps 751 mmHg 55%
    11:00 +28°C° 0.3 mm 3 mps 751 mmHg 54%
    12:00 +29°C° 0.3 mm 3 mps 751 mmHg 53%
    13:00 +29°C° 0.3 mm 3 mps 751 mmHg 52%
    14:00 +29°C° 0.2 mm 3 mps 751 mmHg 53%
    15:00 +29°C° 0.2 mm 4 mps 751 mmHg 54%
    16:00 +28°C° 0.2 mm 4 mps 751 mmHg 55%
    17:00 +27°C° 0 mm 4 mps 751 mmHg 58%
    18:00 +25°C° 0 mm 4 mps 751 mmHg 61%
    19:00 +23°C° 0 mm 4 mps 752 mmHg 64%
    20:00 +22°C° 0 mm 4 mps 752 mmHg 63%
    21:00 +20°C° 0 mm 4 mps 753 mmHg 62%
    22:00 +19°C° 0 mm 4 mps 753 mmHg 60%
    23:00 +18°C° 0 mm 4 mps 753 mmHg 60%
    Show more